Flag for U.S.A. Weather past 2 weeks in Owensboro, Kentucky, U.S.A.

Now
67 °F

Sunny.


Feels Like: 67 °F
Forecast: 51 / 68 °F
Wind: 7 mph from Northeast

Location: Owensboro / Daviess

Current Time: Sep 22, 2014 at 1:44:24 PM

Latest Report: Sep 22, 2014 at 12:56 PM


Visibility: 10 mi

Pressure: 30.24 "Hg

Humidity: 47%

Dew point: 46 °F

Location of OwensboroLocation

Historic Weather in Owensboro — Graph

°F

Owensboro temperature yesterday

Maximum temperature yesterday: 80 °F (at 2:56 PM)
Minimum temperature yesterday: 61 °F (at 11:56 PM)
Average temperature yesterday: 72 °F

Past Weeks' High & Low Weather Summary

 TemperatureHumidityPressure
High87 °F (Sep 20, 2:56 PM)100% (Sep 9, 4:56 AM)30.33 "Hg (Sep 9, 4:56 AM)
Low48 °F (Sep 17, 3:56 AM)32% (Sep 21, 2:56 PM)29.77 "Hg (Sep 10, 6:56 PM)
Average67 °F74%30.07 "Hg
* Reported Sep 7 11:56 AM — Sep 22 11:56 AM, Owensboro, Weather by CustomWeather, © 2014

Note: Actual official high and low records may vary slightly from our data, if they occured in-between our weather recording intervals... More about our weather records

Advertising

Owensboro weather history for previous 24 hours

 ConditionsComfort  
Time TempWeatherWind HumidityBarometerVisibility
11:56 AM
Sep 22
66 °FPassing clouds.7 mph55%30.26 "Hg10 mi
10:56 AM63 °FScattered clouds.9 mph60%30.26 "Hg10 mi
9:56 AM62 °FScattered clouds.12 mph67%30.25 "Hg10 mi
8:56 AM60 °FPassing clouds.9 mph75%30.24 "Hg10 mi
7:56 AM57 °FSunny.5 mph84%30.22 "Hg10 mi
6:56 AM55 °FClear.3 mph86%30.20 "Hg10 mi
5:56 AM55 °FClear.3 mph86%30.18 "Hg10 mi
4:56 AM56 °FClear.6 mph83%30.15 "Hg10 mi
3:56 AM56 °FClear.3 mph83%30.13 "Hg10 mi
2:56 AM53 °FClear.No wind93%30.12 "Hg10 mi
1:56 AM58 °FClear.3 mph78%30.11 "Hg10 mi
12:56 AM60 °FClear.5 mph72%30.10 "Hg10 mi
11:56 PM
Sep 21
61 °FClear.5 mph67%30.09 "Hg10 mi
10:56 PM63 °FClear.6 mph63%30.09 "Hg10 mi
9:56 PM65 °FClear.8 mph61%30.07 "Hg10 mi
8:56 PM67 °FClear.10 mph57%30.05 "Hg10 mi
7:56 PM69 °FClear.7 mph53%30.02 "Hg10 mi
6:56 PM73 °FScattered clouds.10 mph45%29.98 "Hg10 mi
5:56 PM76 °FPassing clouds.13 mph39%29.96 "Hg10 mi
4:56 PM78 °FPassing clouds.15 mph36%29.94 "Hg10 mi
3:56 PM79 °FSunny.14 mph35%29.93 "Hg10 mi
2:56 PM80 °FSunny.12 mph32%29.93 "Hg10 mi
1:56 PM79 °FSunny.14 mph38%29.94 "Hg10 mi
Weather by CustomWeather, © 2014

See weather overviewHow to use our weather pages